Location: Unspecified
(0.0000°N, 0.0000°E)
Time: 08:24:31
(UTC+00:00)

Vanguard 2 - Pass Details

Date: 22 October 2021
Orbit: 554 x 2936 km, 32.9° (Epoch: 06 December)

Event Time Altitude Azimuth Distance (km) Brightness Sun altitude
Rises 16:09:13 0° 216° (SW) 4,935 12.4 23.3°
Reaches altitude 10° 16:17:58 10° 177° (S) 4,732 11.7 21.2°
Maximum altitude 16:19:38 10° 170° (S) 4,836 11.7 20.8°
Drops below altitude 10° 16:21:23 10° 163° (SSE) 4,986 11.7 20.3°
Sets 16:33:07 0° 127° (SE) 6,615 11.9 17.5°
